Regional Weather Roundup
Issued by NWS

Home | Current Version | Previous Version | Graphics & Text | Print | Product List | Glossary On
Versions: 1 2 3 4 5 6 7 8 9 10 11 12 13 14 15 16 17 18 19 20 21 22 23 24 25 26 27 28 29 30 31 32 33 34 35 36 37 38 39 40 41 42 43 44 45 46 47 48 49 50
000
ASUS43 KMPX 270701
RWRMN
WEATHER ROUNDUP FOR MINNESOTA
NATIONAL WEATHER SERVICE TWIN CITIES/CHANHASSEN MN
200 AM CDT FRI MAR 27 2015


NOTE: "FAIR" INDICATES FEW OR NO CLOUDS BELOW 12,000 FEET WITH NO
SIGNIFICANT WEATHER AND/OR OBSTRUCTIONS TO VISIBILITY. N/A MEANS
CURRENT SKY AND/OR WEATHER CONDITIONS ARE NOT AVAILABLE.

MNZ060>063-068>070-270800-
   Twin Cities Metro

CITY           SKY/WX    TMP DP  RH WIND       PRES   REMARKS
TWIN CITIES    CLEAR     24   4  42 N9        30.23S WCI  14
ST PAUL        CLEAR     23   6  48 N7        30.25R WCI  15
CRYSTAL        CLEAR     23   9  55 N5        30.23R WCI  17
BLAINE         CLEAR     23   7  50 N3        30.23S
LAKEVILLE      CLEAR     16   7  67 N5        30.22R WCI   9
EDEN PRAIRIE   CLEAR     23   8  52 N5        30.22R WCI  17
SOUTH ST PAUL  CLEAR     25   5  41 N5        30.23S WCI  19
LAKE ELMO      FAIR      23   5  46 N5        30.23R WCI  17
$$
MNZ001>005-007-008-013>017-022>024-027-028-270800-
   Northwest Minnesota

CITY           SKY/WX    TMP DP  RH WIND       PRES   REMARKS
BEMIDJI        CLEAR      9   2  72 NW3       30.26S
HALLOCK        CLEAR     14   7  73 E3        30.29F
ROSEAU         CLEAR     16   9  73 CALM      30.28F
WARROAD        CLEAR     16   9  73 NW3       30.28F
THIEF RVR FALL CLEAR     18  10  73 CALM      30.28F
CROOKSTON      CLEAR     18  10  73 CALM      30.31S
FOSSTON        CLEAR     10   7  85 CALM      30.27F
DETROIT LAKES  CLEAR     18  14  86 CALM      30.27S
MOORHEAD       CLEAR     16  10  79 CALM      30.31S
PARK RAPIDS    CLEAR     11   2  67 NW5       30.25R WCI   3
MAHNOMEN       FAIR      16  11  82 CALM      30.27S
$$
MNZ006-009>011-018-025>026-270800-
   North Central Minnesota

CITY           SKY/WX    TMP DP  RH WIND       PRES   REMARKS
BAUDETTE       CLEAR     13   5  70 CALM      30.26F
FLAG ISLAND    CLEAR     12   7  79 CALM      30.27S
INTL FALLS     CLEAR      8   4  83 CALM      30.26R
WASKISH        CLEAR      9   5  85 CALM      30.27S
BIG FORK       CLEAR     10   3  72 CALM      30.25S
LONGVILLE      FAIR      12   5  73 CALM      30.25S
GRAND RAPIDS   CLEAR     18   0  45 N5        30.24R WCI  11
ORR            CLEAR      9   1  72 CALM      30.22S
COOK           CLEAR      7   3  85 CALM      30.24S
WALKER         FAIR      13  -1  54 CALM      30.25S
$$
MNZ012-019>021-037-270800-
   Northeast Minnesota

CITY           SKY/WX    TMP DP  RH WIND       PRES   REMARKS
DULUTH         CLEAR     15   1  53 N6        30.21S WCI   6
ELY            CLEAR     10   1  67 CALM      30.21F
HIBBING        CLEAR      7  -1  70 CALM      30.23S
EVELETH        CLEAR     12   3  67 CALM      30.24S
DULUTH HARBOR  CLEAR     21   9  58 NE21      30.27F WCI   6
TWO HARBORS    CLEAR     18   5  57 N5        30.22S WCI  11
SILVER BAY     CLEAR     12   3  67 NW3       30.22S
GRAND MARAIS     N/A     13   5  70 CALM      30.26S
G MARAIS ARPRT FAIR       7  -2  66 NW7       30.15S WCI  -5
$$
MNZ029>031-032-039>041-046>048-054>057-064-270800-
   West Central Minnesota

CITY           SKY/WX    TMP DP  RH WIND       PRES   REMARKS
FERGUS FALLS   CLEAR     16   9  73 N3        30.32R
WHEATON        CLEAR     18  10  73 N3        30.32S
MORRIS         CLEAR     18  12  79 NW7       30.28R WCI   8
ALEXANDRIA     CLEAR     17  11  77 N5        30.26R WCI  10
ELBOW LAKE     FAIR      15  11  82 NW3       30.28R
WADENA         CLEAR     16   5  62 N3        30.26R
GLENWOOD       FAIR      18  12  79 N5        30.26S WCI  11
APPLETON       CLEAR     21  16  79 N7        30.29R WCI  13
BENSON         CLEAR     12  10  92 N7        30.28R WCI   2
ORTONVILLE     CLEAR     19  12  73 N6        30.29R WCI  11
MADISON        CLEAR     23  16  74 N10       30.29S WCI  12
WILLMAR        FAIR      18   9  68 NW8       30.27S WCI   7
$$
MNZ033>034-036-042>043-049>051-058-059-270800-
   Central Minnesota

CITY           SKY/WX    TMP DP  RH WIND       PRES   REMARKS
ST CLOUD       CLEAR     19   7  59 N5        30.25R WCI  12
SAUK CENTRE    FAIR      17   6  61 N5        30.26R WCI  10
PAYNESVILLE    CLEAR     17   3  55 CALM      30.26R
AITKIN         CLEAR     18   1  49 N3        30.23S
PINE RIVER     CLEAR     12   3  67 CALM      30.28S
BRAINERD       CLEAR     17   3  54 N5        30.25S WCI  10
STAPLES        CLEAR     12   1  62 CALM      30.26R
LONG PRAIRIE   FAIR      18   5  57 NW6       30.26R WCI   9
LITTLE FALLS   CLEAR     21   0  39 CALM      30.26R
LITCHFIELD     CLEAR     19   9  63 CALM      30.25R
MAPLE LAKE     CLEAR     22  10  62 N6        30.25R WCI  14
$$
MNZ037-044-045-052-053-270800-
   East Central Minnesota

CITY           SKY/WX    TMP DP  RH WIND       PRES   REMARKS
PRINCETON      CLEAR     21   9  58 CALM      30.25R
MORA           CLEAR     19   0  42 CALM      30.26S
CAMBRIDGE      CLEAR     25   7  46 N3        30.23R
RUSH CITY      CLEAR     19   5  54 N5        30.25R WCI  12
MOOSE LAKE     CLEAR     18   0  45 CALM      30.23R
HINCKLEY       FAIR      21   3  45 N5        30.25R WCI  15
CLOQUET        CLEAR     16   0  48 N5        30.23R WCI   9
MCGREGOR       CLEAR     19   3  49 N5        30.25R WCI  13
$$
MNZ071>073-080-081-089-090-097-098-270800-
   Southwest Minnesota

CITY           SKY/WX    TMP DP  RH WIND       PRES   REMARKS
MONTEVIDEO     CLEAR     21  16  79 N7        30.29R WCI  13
GRANITE FALLS  CLEAR     21  15  76 NW7       30.29S WCI  13
CANBY          CLEAR     19  15  81 NW7       30.29S WCI  10
MARSHALL       CLEAR     18  10  73 NW9       30.27S WCI   6
REDWOOD FALLS  CLEAR     23  13  65 N9        30.26R WCI  13
OLIVIA         CLEAR     19  14  79 N8        30.25S WCI   9
PIPESTONE      CLEAR     19  12  73 N3        30.24S
WINDOM         CLEAR     19  16  86 NW12      30.22S WCI   7
WORTHINGTON    CLEAR     18  10  73 NW9       30.24R WCI   6
JACKSON        PTCLDY    23  16  74 N7        30.22S WCI  15
TRACY          CLEAR     22  15  76 NW9       30.25S WCI  12
SLAYTON        CLEAR     21  13  71 CALM      30.24R
$$
MNZ065>067-074>077-082>085-091>093-270800-
   South Central Minnesota

CITY           SKY/WX    TMP DP  RH WIND       PRES   REMARKS
MANKATO        CLEAR     21  10  63 N7        30.22R WCI  13
NEW ULM        CLEAR     21  12  68 N7        30.24R WCI  13
ST JAMES       CLEAR     25  18  74 NW7       30.24S WCI  17
FAIRMONT       CLEAR     23  16  74 NW9       30.21R WCI  13
GLENCOE        CLEAR     21  12  67 NW5       30.24R WCI  14
FARIBAULT      CLEAR     14  10  85 CALM      30.21S
OWATONNA       CLEAR     14  10  85 CALM      30.20R
ALBERT LEA     CLEAR     21  18  86 N5        30.19R WCI  15
$$
MNZ078>079-086>088-094>096-270800-
   Southeast Minnesota

CITY           SKY/WX    TMP DP  RH WIND       PRES   REMARKS
ROCHESTER      CLEAR     20   8  60 N7        30.17S WCI  11
RED WING       CLEAR     23   7  50 CALM      30.21S
STANTON        CLEAR     21   8  57 N5        30.20S WCI  14
DODGE CENTER   PTCLDY    19   9  63 N3        30.18R
WINONA         CLEAR     28  14  54 E6        30.22R WCI  22
AUSTIN         CLEAR     19  12  73 NW5       30.18R WCI  13
PRESTON        CLEAR     20   9  62 N6        30.16S WCI  13
$$
ABBREVIATIONS USED IN REMARKS
   TC - TEMPERATURES IN CELSIUS
  WCI - WIND CHILL INDEX
   HX - HEAT INDEX
  VSB - VISIBILITY
$$


USA.gov is the U.S. government's official web portal to all federal, state and local government web resources and services.